DW5310 Weather Reports


time (UTC)temp
F
wind
direction
speed
knots
gust
knots
rain 1hr
in
rain 24hr
in
rain mn
in
humidity
%
barometer
mb
20260901025505 76 260 0.0 0.0 0.00 0.00 0.00 41 1007.5
20260901025007 76 260 0.0 0.0 0.00 0.00 0.00 41 1007.5
20260901024504 76 260 0.0 0.0 0.00 0.00 0.00 41 1007.5
20260901024005 77 260 0.0 0.0 0.00 0.00 0.00 41 1007.5
20260901023504 77 257 0.0 0.0 0.00 0.00 0.00 40 1007.5
20260901023005 77 215 0.0 0.0 0.00 0.00 0.00 40 1007.5
20260901022504 78 238 0.0 0.0 0.00 0.00 0.00 40 1007.5
20260901022004 78 260 0.0 0.0 0.00 0.00 0.00 40 1007.5
20260901021504 78 215 0.0 0.0 0.00 0.00 0.00 40 1007.5
20260901021004 79 215 0.0 0.0 0.00 0.00 0.00 40 1007.5
20260901020504 79 227 0.0 0.0 0.00 0.00 0.00 40 1007.5
20260901020004 79 238 0.0 0.0 0.00 0.00 0.00 40 1007.5
20260901015504 79 213 0.0 0.0 0.00 0.00 0.00 40 1007.5
20260901015004 79 184 0.0 7.8 0.00 0.00 0.00 40 1007.5
20260901014504 80 241 0.0 7.8 0.00 0.00 0.00 40 1007.5
20260901014005 80 228 0.9 6.1 0.00 0.00 0.00 40 1007.5
20260901013004 80 220 0.9 5.2 0.00 0.00 0.00 40 1007.5
20260901012004 80 229 1.7 6.1 0.00 0.00 0.00 40 1007.5
20260901011504 80 247 0.9 6.1 0.00 0.00 0.00 40 1007.5
20260901011004 81 233 0.9 6.1 0.00 0.00 0.00 40 1007.5
20260901010504 81 220 0.9 5.2 0.00 0.00 0.00 40 1007.5
20260901010005 81 215 0.0 5.2 0.00 0.00 0.00 40 1007.5
20260901005504 81 191 2.6 7.0 0.00 0.00 0.00 39 1007.5
20260901004505 82 233 0.9 7.8 0.00 0.00 0.00 40 1007.5
20260901004004 82 231 1.7 8.7 0.00 0.00 0.00 40 1007.5
20260901003504 82 230 4.3 8.7 0.00 0.00 0.00 39 1007.5
20260901002504 83 215 0.0 7.0 0.00 0.00 0.00 39 1007.5
20260901002004 83 273 0.9 7.0 0.00 0.00 0.00 39 1007.5
20260901001504 83 192 0.9 6.1 0.00 0.00 0.00 38 1007.5
20260901001004 84 215 1.7 6.1 0.00 0.00 0.00 37 1007.5
20260901000504 84 225 0.0 5.2 0.00 0.00 0.00 37 1007.5
20260901000004 84 215 0.0 5.2 0.00 0.00 0.00 37 1007.5
20260831235004 84 200 0.0 13.0 0.00 0.00 0.00 37 1007.5
20260831234504 85 199 1.7 13.0 0.00 0.00 0.00 36 1007.5
20260831234005 85 214 4.3 13.0 0.00 0.00 0.00 36 1007.5
20260831233504 85 144 4.3 11.3 0.00 0.00 0.00 38 1007.5
20260831233004 85 215 1.7 8.7 0.00 0.00 0.00 37 1007.5
20260831232504 85 222 2.6 8.7 0.00 0.00 0.00 38 1008.5
20260831232004 86 138 1.7 8.7 0.00 0.00 0.00 39 1008.5
20260831231504 86 266 0.9 8.7 0.00 0.00 0.00 39 1008.5
20260831231004 85 267 1.7 6.1 0.00 0.00 0.00 39 1007.5
20260831230504 85 35 0.0 7.0 0.00 0.00 0.00 39 1007.5
20260831230005 85 219 1.7 7.0 0.00 0.00 0.00 39 1007.5
20260831225505 85 205 1.7 7.0 0.00 0.00 0.00 40 1008.5
20260831225004 85 299 0.0 2.6 0.00 0.00 0.00 40 1008.5
20260831224504 86 341 0.0 4.3 0.00 0.00 0.00 40 1008.5
20260831224003 85 35 0.0 6.1 0.00 0.00 0.00 40 1008.5
20260831223505 85 35 0.9 6.1 0.00 0.00 0.00 40 1008.5
20260831223003 85 35 2.6 7.0 0.00 0.00 0.00 40 1008.5
20260831222504 86 43 0.0 7.0 0.00 0.00 0.00 40 1008.5
20260831222004 85 35 1.7 6.1 0.00 0.00 0.00 40 1008.5
20260831221503 85 35 0.9 11.3 0.00 0.00 0.00 40 1008.5
20260831221004 84 133 4.3 11.3 0.00 0.00 0.00 39 1008.5
20260831220504 84 127 0.0 8.7 0.00 0.00 0.00 40 1008.5
20260831220004 84 246 1.7 8.7 0.00 0.00 0.00 41 1008.5
20260831215504 84 117 1.7 11.3 0.00 0.00 0.00 41 1008.5
20260831214504 83 215 2.6 13.0 0.00 0.00 0.00 41 1008.5
20260831214004 83 147 6.1 13.0 0.00 0.00 0.00 41 1008.5
20260831213504 83 187 0.9 8.7 0.00 0.00 0.00 42 1008.5
20260831213003 82 132 3.5 7.0 0.00 0.00 0.00 41 1008.5
20260831212503 82 128 2.6 7.8 0.00 0.00 0.00 42 1009.5
20260831212004 82 41 0.9 7.8 0.00 0.00 0.00 43 1009.5
20260831211504 81 125 2.6 7.8 0.00 0.00 0.00 43 1009.5
20260831211004 81 260 0.0 7.8 0.00 0.00 0.00 42 1008.5
20260831210503 81 63 1.7 7.8 0.00 0.00 0.00 44 1008.5
20260831210004 81 161 4.3 7.8 0.00 0.00 0.00 45 1008.5
20260831205004 80 130 2.6 8.7 0.00 0.00 0.00 44 1007.5
20260831204504 80 3 1.7 8.7 0.00 0.00 0.00 45 1007.5
20260831204003 79 118 0.9 6.1 0.00 0.00 0.00 46 1008.5
20260831203504 79 275 1.7 6.1 0.00 0.00 0.00 45 1008.5
20260831203004 79 301 2.6 6.1 0.00 0.00 0.00 46 1008.5
20260831202504 79 341 1.7 6.1 0.00 0.00 0.00 47 1007.5
20260831202004 79 305 1.7 8.7 0.00 0.00 0.00 48 1007.5
20260831201507 78 305 4.3 8.7 0.00 0.00 0.00 46 1007.5
20260831201007 78 153 0.0 8.7 0.00 0.00 0.00 48 1008.5
20260831200507 77 100 2.6 8.7 0.00 0.00 0.00 49 1008.5
20260831200006 77 75 0.9 8.7 0.00 0.00 0.00 49 1008.5
20260831195506 77 333 0.9 11.3 0.00 0.00 0.00 49 1008.5
20260831195007 77 71 2.6 11.3 0.00 0.00 0.00 50 1008.5
20260831194007 77 117 0.9 7.8 0.00 0.00 0.00 51 1008.5
20260831193507 76 302 1.7 7.8 0.00 0.00 0.00 51 1008.5
20260831193006 76 88 4.3 7.8 0.00 0.00 0.00 52 1008.5
20260831192507 75 49 2.6 7.8 0.00 0.00 0.00 51 1008.5
20260831191506 75 11 2.6 7.8 0.00 0.00 0.00 51 1008.5
20260831191007 74 120 2.6 8.7 0.00 0.00 0.00 50 1009.5
20260831185508 74 82 4.3 12.2 0.00 0.00 0.00 54 1009.5
20260831185006 74 137 3.5 11.3 0.00 0.00 0.00 54 1009.5
20260831184506 73 181 4.3 11.3 0.00 0.00 0.00 57 1009.5
20260831184007 73 52 3.5 11.3 0.00 0.00 0.00 58 1009.5
20260831183507 72 76 0.9 7.8 0.00 0.00 0.00 58 1009.5
20260831182506 71 110 4.3 8.7 0.00 0.00 0.00 57 1009.5
20260831181007 70 79 0.9 11.3 0.00 0.00 0.00 63 1009.5
20260831180007 70 125 1.7 8.7 0.00 0.00 0.00 62 1009.5
20260831175507 69 66 3.5 7.0 0.00 0.00 0.00 64 1009.5
20260831174506 68 86 0.9 7.8 0.00 0.00 0.00 66 1009.5
20260831174006 68 314 0.0 7.0 0.00 0.00 0.00 68 1009.5
20260831173507 67 104 0.9 6.1 0.00 0.00 0.00 68 1009.5
20260831173006 67 157 1.7 7.0 0.00 0.00 0.00 70 1009.5
20260831172506 66 84 1.7 7.0 0.00 0.00 0.00 70 1010.5
20260831172006 66 284 0.0 8.7 0.00 0.00 0.00 71 1010.5
20260831171506 66 73 0.9 8.7 0.00 0.00 0.00 72 1010.5
20260831171006 66 96 0.0 7.0 0.00 0.00 0.00 72 1010.5
20260831170506 65 123 0.9 7.0 0.00 0.00 0.00 73 1010.5
20260831170006 65 45 0.9 5.2 0.00 0.00 0.00 75 1010.5
20260831165507 64 79 0.0 0.0 0.00 0.00 0.00 77 1010.5
20260831165007 63 8 0.0 0.0 0.00 0.00 0.00 78 1010.5
20260831164506 63 26 0.0 0.0 0.00 0.00 0.00 78 1010.5
20260831164006 63 305 0.0 0.0 0.00 0.00 0.00 79 1010.5
20260831163506 62 350 0.0 4.3 0.00 0.00 0.00 80 1010.5
20260831163006 62 90 1.7 4.3 0.00 0.00 0.00 81 1010.5
20260831162506 62 35 0.0 0.0 0.00 0.00 0.00 82 1010.5
20260831162006 61 58 1.7 0.0 0.00 0.00 0.00 82 1010.5
20260831161507 61 77 0.0 0.0 0.00 0.00 0.00 83 1010.5
20260831160506 60 148 0.0 0.0 0.00 0.00 0.00 84 1010.5
20260831160007 60 35 0.0 0.0 0.00 0.00 0.00 86 1010.5
20260831155507 59 35 0.0 0.0 0.00 0.00 0.00 87 1010.5
20260831155006 59 57 0.0 4.3 0.00 0.00 0.00 87 1010.5
20260831154506 59 35 0.0 4.3 0.00 0.00 0.00 88 1010.5
20260831153506 58 148 0.0 2.6 0.00 0.00 0.00 89 1010.5
20260831153006 58 35 0.0 2.6 0.00 0.00 0.00 89 1010.5
20260831152507 58 139 0.0 5.2 0.00 0.00 0.00 89 1010.5
20260831152006 57 161 0.0 5.2 0.00 0.00 0.00 90 1010.5
20260831151506 57 215 0.0 5.2 0.00 0.00 0.00 90 1010.5
20260831151006 57 35 0.0 0.0 0.00 0.00 0.00 91 1010.5
20260831150506 57 35 0.0 0.0 0.00 0.00 0.00 91 1010.5
20260831150006 57 35 0.0 0.0 0.00 0.00 0.00 92 1010.5
20260831145510 56 35 0.0 5.2 0.00 0.00 0.00 92 1010.5
20260831145006 56 92 0.0 5.2 0.00 0.00 0.00 92 1010.5
20260831144006 55 35 0.0 0.0 0.00 0.00 0.00 93 1010.5
20260831143505 55 100 0.0 0.0 0.00 0.00 0.00 93 1010.5
20260831143007 54 35 0.0 0.0 0.00 0.00 0.00 93 1010.5
20260831142506 54 37 0.0 0.0 0.00 0.00 0.00 93 1010.5
20260831142006 54 43 0.0 0.0 0.00 0.00 0.00 92 1010.5
20260831141506 53 39 0.0 0.0 0.00 0.00 0.00 93 1010.5
20260831140506 53 80 0.0 0.0 0.00 0.00 0.00 92 1010.5
20260831140006 53 80 0.0 0.0 0.00 0.00 0.00 92 1010.5
20260831135506 53 58 0.0 0.0 0.00 0.00 0.00 92 1010.5
20260831134505 53 58 0.0 0.0 0.00 0.00 0.00 92 1010.5
20260831134006 53 58 0.0 0.0 0.00 0.00 0.00 92 1010.5
20260831133505 53 58 0.0 0.0 0.00 0.00 0.00 92 1010.5
20260831133006 53 58 0.0 0.0 0.00 0.00 0.00 91 1010.5
20260831132006 53 58 0.0 0.0 0.00 0.00 0.00 91 1010.5
20260831130506 53 102 0.0 0.0 0.00 0.00 0.00 91 1010.5
20260831130006 53 102 0.0 0.0 0.00 0.00 0.00 90 1010.5
20260831125506 53 139 0.0 0.0 0.00 0.00 0.00 90 1010.5
20260831125006 53 80 0.0 0.0 0.00 0.00 0.00 90 1010.5
20260831124506 54 80 0.0 0.0 0.00 0.00 0.00 90 1010.5
20260831124006 54 80 0.0 0.0 0.00 0.00 0.00 89 1010.5
20260831123006 54 80 0.0 0.0 0.00 0.00 0.00 89 1010.5
20260831122505 54 125 0.0 0.0 0.00 0.00 0.00 89 1010.5
20260831122006 54 80 0.0 0.0 0.00 0.00 0.00 89 1010.5
20260831121506 54 102 0.0 0.0 0.00 0.00 0.00 89 1010.5
20260831121006 54 102 0.0 0.0 0.00 0.00 0.00 89 1011.5
20260831120506 54 102 0.0 0.0 0.00 0.00 0.00 89 1011.5
20260831120006 55 102 0.0 0.0 0.00 0.00 0.00 89 1011.5
20260831115505 55 102 0.0 0.0 0.00 0.00 0.00 88 1011.5
20260831114506 55 102 0.0 0.0 0.00 0.00 0.00 88 1011.5
20260831114005 55 102 0.0 0.0 0.00 0.00 0.00 88 1012.5
20260831113505 55 102 0.0 0.0 0.00 0.00 0.00 88 1012.5
20260831113006 55 170 0.0 0.0 0.00 0.00 0.00 88 1012.5
20260831112505 55 170 0.0 0.0 0.00 0.00 0.00 87 1011.5
20260831112006 55 170 0.0 0.0 0.00 0.00 0.00 87 1011.5
20260831111506 55 170 0.0 0.0 0.00 0.00 0.00 87 1011.5
20260831110506 55 170 0.0 0.0 0.00 0.00 0.00 86 1012.5
20260831105506 56 170 0.0 0.0 0.00 0.00 0.00 86 1012.5
20260831105005 56 170 0.0 0.0 0.00 0.00 0.00 85 1012.5
20260831104506 56 215 0.0 0.0 0.00 0.00 0.00 85 1012.5
20260831104005 56 192 0.0 0.0 0.00 0.00 0.00 85 1012.5
20260831103506 56 192 0.0 0.0 0.00 0.00 0.00 85 1012.5
20260831102506 56 192 0.0 0.0 0.00 0.00 0.00 84 1012.5
20260831102006 56 192 0.0 0.0 0.00 0.00 0.00 84 1012.5
20260831101505 56 102 0.0 0.0 0.00 0.00 0.00 84 1012.5
20260831101006 56 102 0.0 0.0 0.00 0.00 0.00 84 1012.5
20260831100506 56 102 0.0 0.0 0.00 0.00 0.00 84 1012.5
20260831100006 56 102 0.0 0.0 0.00 0.00 0.00 84 1012.5
20260831095505 56 192 0.0 0.0 0.00 0.00 0.00 83 1012.5
20260831095005 57 192 0.0 0.0 0.00 0.00 0.00 83 1012.5
20260831094505 57 192 0.0 0.0 0.00 0.00 0.00 83 1012.5
20260831094005 57 192 0.0 0.0 0.00 0.00 0.00 83 1012.5
20260831093505 57 192 0.0 0.0 0.00 0.00 0.00 83 1012.5
20260831093005 57 192 0.0 0.0 0.00 0.00 0.00 83 1012.5
20260831092005 57 192 0.0 0.0 0.00 0.00 0.00 82 1012.5
20260831091505 57 192 0.0 0.0 0.00 0.00 0.00 82 1012.5
20260831090005 57 192 0.0 0.0 0.00 0.00 0.00 81 1011.5
20260831085505 57 170 0.0 0.0 0.00 0.00 0.00 81 1012.5
20260831085006 58 170 0.0 0.0 0.00 0.00 0.00 81 1012.5
20260831084505 58 170 0.0 0.0 0.00 0.00 0.00 80 1012.5
20260831084005 58 170 0.0 0.0 0.00 0.00 0.00 80 1012.5
20260831083505 58 85 0.0 0.0 0.00 0.00 0.00 80 1012.5
20260831082505 58 238 0.0 0.0 0.00 0.00 0.00 79 1013.5
20260831082005 58 238 0.0 0.0 0.00 0.00 0.00 79 1013.5
20260831081505 58 238 0.0 0.0 0.00 0.00 0.00 79 1013.5
20260831081005 58 238 0.0 0.0 0.00 0.00 0.00 79 1013.5
20260831080505 58 238 0.0 0.0 0.00 0.00 0.00 78 1013.5
20260831080005 58 238 0.0 0.0 0.00 0.00 0.00 78 1013.5
20260831075505 58 238 0.0 0.0 0.00 0.00 0.00 78 1013.5
20260831075005 58 238 0.0 0.0 0.00 0.00 0.00 78 1013.5
20260831074505 58 238 0.0 0.0 0.00 0.00 0.00 78 1013.5
20260831074006 59 238 0.0 0.0 0.00 0.00 0.00 77 1013.5
20260831073506 59 238 0.0 0.0 0.00 0.00 0.00 77 1013.5
20260831073005 59 238 0.0 0.0 0.00 0.00 0.00 77 1013.5
20260831072505 59 238 0.0 0.0 0.00 0.00 0.00 76 1014.5
20260831072005 59 238 0.0 0.0 0.00 0.00 0.00 75 1014.5
20260831071505 59 238 0.0 0.0 0.00 0.00 0.00 75 1014.5
20260831071006 59 238 0.0 0.0 0.00 0.00 0.00 75 1014.5
20260831065505 59 238 0.0 0.0 0.00 0.00 0.00 74 1014.5
20260831065005 60 238 0.0 0.0 0.00 0.00 0.00 74 1014.5
20260831064005 60 170 0.0 0.0 0.00 0.00 0.00 74 1014.5
20260831063505 60 201 0.0 0.0 0.00 0.00 0.00 73 1014.5
20260831063005 60 181 0.0 0.0 0.00 0.00 0.00 73 1014.5
20260831062505 60 92 0.0 0.0 0.00 0.00 0.00 73 1014.5
20260831061505 60 125 0.0 0.0 0.00 0.00 0.00 72 1014.5
20260831055505 61 305 0.0 0.0 0.00 0.00 0.00 71 1013.5
20260831055005 61 56 0.0 0.0 0.00 0.00 0.00 71 1013.5
20260831054505 61 141 0.0 0.0 0.00 0.00 0.00 70 1013.5
20260831054005 61 211 0.0 0.0 0.00 0.00 0.00 70 1014.5
20260831053005 61 102 0.0 0.0 0.00 0.00 0.00 69 1014.5
20260831052505 61 120 0.0 0.0 0.00 0.00 0.00 69 1014.5
20260831052006 62 43 0.0 0.0 0.00 0.00 0.00 68 1014.5
20260831051505 62 215 0.0 5.2 0.00 0.00 0.00 68 1014.5
20260831051005 62 282 0.0 5.2 0.00 0.00 0.00 68 1014.5
20260831050005 62 344 0.0 0.0 0.00 0.00 0.00 67 1014.5
20260831045504 62 144 0.0 0.0 0.00 0.00 0.00 67 1014.5
20260831045005 62 35 0.0 0.0 0.00 0.00 0.00 67 1014.5
20260831044504 62 184 0.0 5.2 0.00 0.00 0.00 67 1014.5
20260831043505 62 215 0.0 0.0 0.00 0.00 0.00 66 1014.5
20260831043005 62 101 0.0 0.0 0.00 0.00 0.00 66 1014.5
20260831042505 62 260 0.0 0.0 0.00 0.00 0.00 65 1014.5
20260831041504 63 269 0.0 0.0 0.00 0.00 0.00 64 1014.5
20260831041005 63 282 0.0 0.0 0.00 0.00 0.00 63 1014.5
20260831040504 63 282 0.0 0.0 0.00 0.00 0.00 63 1014.5
20260831040005 63 305 0.0 0.0 0.00 0.00 0.00 63 1014.5
20260831034505 64 192 0.0 0.0 0.00 0.00 0.00 62 1014.5
20260831034004 64 215 0.0 0.0 0.00 0.00 0.00 61 1015.5
20260831033505 64 269 0.0 2.6 0.00 0.00 0.00 61 1015.5
20260831033004 64 215 0.0 2.6 0.00 0.00 0.00 60 1015.5
20260831032505 64 284 0.0 2.6 0.00 0.00 0.00 60 1015.5
20260831032004 64 305 0.0 0.0 0.00 0.00 0.00 59 1015.5
20260831031504 64 192 0.0 0.0 0.00 0.00 0.00 59 1015.5
20260831031004 65 282 0.0 0.0 0.00 0.00 0.00 58 1015.5
20260831030504 65 35 0.0 0.0 0.00 0.00 0.00 58 1015.5
20260831030004 65 287 0.0 0.0 0.00 0.00 0.00 57 1015.5